QPF
0.00 0.00 0.01 0.01 0.01 0.00 0.00 0.00 0.00 0.00 0.00 0.00 0.00 0.00 0.01 0.02 0.02 0.02 0.01 0.01 0.00 0.00 0.00 0.00 0.00 0.00 0.01 0.01 0.00 0.00 0.00 0.00 0.01 0.01 0.00 0.00 0.00 0.00 0.00 0.00 0.00 0.00 0.00 0.00
0.01 0.00 0.00 0.01 0.00 0.00 0.00 0.00 0.00 0.00 0.00 0.00 0.00 0.00 0.01 0.03 0.01 0.01 0.01 0.01 0.01 0.00 0.00 0.00 0.00 0.00 0.00 0.00 0.00 0.00 0.01 0.00 0.00 0.00 0.00 0.00 0.00 0.00 0.00 0.00 0.00 0.00 0.00 0.00
0.02 0.01 0.01 0.01 0.00 0.00 0.00 0.00 0.00 0.00 0.00 0.00 0.00 0.00 0.01 0.03 0.01 0.01 0.01 0.01 0.01 0.01 0.00 0.00 0.00 0.00 0.00 0.00 0.00 0.01 0.01 0.00 0.00 0.00 0.00 0.00 0.00 0.00 0.00 0.00 0.00 0.00 0.00 0.00
0.04 0.02 0.01 0.00 0.00 0.00 0.00 0.00 0.00 0.00 0.00 0.00 0.00 0.00 0.00 0.01 0.01 0.00 0.00 0.01 0.01 0.01 0.00 0.00 0.00 0.00 0.00 0.00 0.00 0.00 0.00 0.00 0.00 0.00 0.00 0.00 0.00 0.00 0.00 0.00 0.00 0.00 0.00 0.00
0.04 0.03 0.01 0.00 0.00 0.00 0.00 0.00 0.00 0.00 0.00 0.00 0.00 0.00 0.00 0.00 0.01 0.01 0.01 0.01 0.00 0.00 0.00 0.00 0.00 0.00 0.00 0.00 0.00 0.00 0.00 0.00 0.00 0.00 0.00 0.00 0.00 0.00 0.00 0.00 0.00 0.00 0.00 0.00
0.03 0.02 0.02 0.01 0.00 0.00 0.00 0.00 0.00 0.01 0.00 0.00 0.00 0.00 0.00 0.00 0.00 0.00 0.00 0.01 0.00 0.00 0.00 0.00 0.00 0.00 0.00 0.00 0.00 0.00 0.00 0.00 0.00 0.00 0.00 0.00 0.00 0.00 0.00 0.00 0.00 0.00 0.00 0.00
0.03 0.02 0.02 0.01 0.00 0.00 0.00 0.00 0.00 0.00 0.00 0.00 0.00 0.00 0.00 0.00 0.00 0.00 0.00 0.00 0.00 0.00 0.00 0.00 0.00 0.00 0.00 0.00 0.00 0.00 0.00 0.00 0.00 0.00 0.00 0.00 0.00 0.00 0.00 0.00 0.00 0.00 0.00 0.00
0.01 0.02 0.01 0.01 0.01 0.00 0.00 0.00 0.00 0.00 0.00 0.00 0.00 0.00 0.00 0.00 0.00 0.00 0.00 0.00 0.00 0.00 0.00 0.01 0.01 0.00 0.00 0.00 0.00 0.00 0.00 0.00 0.00 0.00 0.00 0.00 0.00 0.00 0.00 0.00 0.00 0.00 0.00 0.00
0.01 0.01 0.01 0.01 0.01 0.01 0.00 0.00 0.00 0.00 0.00 0.00 0.00 0.00 0.00 0.00 0.00 0.00 0.00 0.00 0.00 0.00 0.00 0.00 0.00 0.00 0.00 0.00 0.00 0.00 0.00 0.00 0.00 0.00 0.00 0.00 0.00 0.00 0.00 0.00 0.00 0.00 0.00 0.00
0.01 0.01 0.01 0.00 0.01 0.01 0.00 0.00 0.00 0.00 0.00 0.00 0.00 0.00 0.00 0.00 0.00 0.00 0.00 0.00 0.00 0.00 0.00 0.00 0.00 0.00 0.00 0.00 0.00 0.00 0.00 0.00 0.00 0.00 0.00 0.00 0.00 0.00 0.00 0.00 0.00 0.00 0.00 0.00
0.02 0.01 0.01 0.01 0.01 0.00 0.00 0.00 0.00 0.00 0.00 0.00 0.00 0.00 0.00 0.00 0.00 0.00 0.00 0.00 0.00 0.00 0.00 0.00 0.00 0.00 0.00 0.00 0.00 0.00 0.00 0.00 0.00 0.00 0.00 0.00 0.00 0.00 0.00 0.00 0.00 0.00 0.00 0.00
0.01 0.01 0.01 0.01 0.01 0.00 0.00 0.00 0.00 0.00 0.00 0.00 0.00 0.00 0.00 0.00 0.00 0.00 0.00 0.00 0.00 0.00 0.00 0.00 0.00 0.00 0.00 0.00 0.00 0.00 0.00 0.00 0.00 0.00 0.00 0.00 0.00 0.00 0.00 0.01 0.00 0.00 0.00 0.00
0.01 0.01 0.01 0.01 0.00 0.00 0.00 0.00 0.00 0.00 0.00 0.00 0.00 0.00 0.00 0.00 0.00 0.00 0.00 0.00 0.00 0.00 0.00 0.00 0.00 0.00 0.00 0.00 0.00 0.00 0.00 0.00 0.00 0.00 0.00 0.00 0.00 0.00 0.00 0.00 0.00 0.00 0.00 0.00
0.01 0.01 0.01 0.01 0.00 0.00 0.00 0.00 0.00 0.00 0.00 0.00 0.00 0.00 0.00 0.00 0.00 0.00 0.00 0.00 0.00 0.00 0.00 0.00 0.00 0.00 0.00 0.00 0.00 0.00 0.00 0.00 0.00 0.00 0.00 0.00 0.00 0.00 0.00 0.00 0.00 0.00 0.00 0.00
0.01 0.01 0.01 0.01 0.01 0.00 0.00 0.00 0.00 0.00 0.00 0.00 0.00 0.00 0.00 0.00 0.00 0.00 0.00 0.00 0.00 0.00 0.00 0.00 0.00 0.00 0.00 0.00 0.00 0.00 0.00 0.00 0.00 0.00 0.00 0.00 0.00 0.00 0.00 0.00 0.00 0.00 0.00 0.00
0.01 0.01 0.02 0.02 0.01 0.01 0.00 0.00 0.00 0.00 0.00 0.00 0.00 0.00 0.00 0.00 0.00 0.00 0.00 0.00 0.00 0.00 0.00 0.00 0.00 0.00 0.00 0.00 0.00 0.00 0.00 0.00 0.00 0.00 0.00 0.00 0.00 0.00 0.00 0.00 0.00 0.00 0.00 0.00
0.01 0.01 0.02 0.02 0.02 0.02 0.01 0.00 0.00 0.00 0.00 0.00 0.00 0.00 0.00 0.00 0.00 0.00 0.00 0.00 0.00 0.00 0.00 0.00 0.00 0.00 0.00 0.00 0.00 0.00 0.00 0.00 0.00 0.00 0.00 0.00 0.00 0.00 0.00 0.00 0.00 0.00 0.00 0.00
0.01 0.01 0.01 0.01 0.02 0.02 0.02 0.01 0.00 0.00 0.00 0.00 0.00 0.00 0.00 0.00 0.00 0.00 0.00 0.00 0.00 0.00 0.00 0.00 0.00 0.00 0.00 0.00 0.00 0.00 0.00 0.00 0.00 0.00 0.00 0.00 0.00 0.00 0.00 0.00 0.00 0.00 0.00 0.00
0.00 0.01 0.00 0.00 0.01 0.01 0.02 0.02 0.01 0.00 0.00 0.00 0.00 0.00 0.00 0.00 0.00 0.00 0.00 0.00 0.00 0.00 0.00 0.00 0.00 0.00 0.00 0.01 0.00 0.00 0.00 0.00 0.00 0.00 0.00 0.00 0.00 0.00 0.00 0.00 0.00 0.00 0.00 0.00
0.00 0.00 0.00 0.00 0.00 0.00 0.01 0.01 0.01 0.01 0.01 0.01 0.01 0.01 0.01 0.00 0.00 0.00 0.00 0.00 0.00 0.00 0.00 0.00 0.00 0.00 0.00 0.00 0.00 0.00 0.00 0.00 0.00 0.00 0.00 0.00 0.00 0.00 0.00 0.00 0.00 0.00 0.00 0.00
0.01 0.01 0.01 0.01 0.01 0.01 0.01 0.01 0.01 0.01 0.01 0.01 0.01 0.01 0.00 0.00 0.00 0.00 0.00 0.00 0.00 0.00 0.00 0.00 0.00 0.00 0.00 0.00 0.00 0.00 0.00 0.00 0.00 0.00 0.00 0.00 0.00 0.00 0.00 0.00 0.00 0.00 0.00 0.00
0.03 0.01 0.01 0.01 0.01 0.01 0.01 0.01 0.01 0.01 0.00 0.00 0.00 0.00 0.00 0.00 0.00 0.00 0.00 0.00 0.00 0.00 0.00 0.00 0.00 0.00 0.00 0.00 0.00 0.00 0.00 0.00 0.00 0.00 0.00 0.00 0.00 0.00 0.00 0.00 0.00 0.00 0.00 0.00
0.03 0.03 0.02 0.01 0.01 0.01 0.01 0.00 0.00 0.00 0.00 0.00 0.00 0.00 0.00 0.00 0.00 0.00 0.00 0.00 0.00 0.00 0.00 0.00 0.00 0.00 0.00 0.00 0.00 0.00 0.00 0.00 0.00 0.00 0.00 0.00 0.00 0.00 0.01 0.01 0.01 0.01 0.01 0.00
0.02 0.02 0.02 0.02 0.01 0.01 0.00 0.00 0.00 0.00 0.00 0.00 0.00 0.00 0.00 0.00 0.00 0.00 0.00 0.00 0.00 0.00 0.00 0.00 0.00 0.00 0.00 0.00 0.00 0.00 0.00 0.00 0.00 0.00 0.01 0.01 0.01 0.01 0.01 0.01 0.01 0.01 0.01 0.01
0.02 0.02 0.02 0.02 0.02 0.01 0.01 0.01 0.00 0.00 0.00 0.00 0.00 0.00 0.00 0.00 0.00 0.00 0.00 0.00 0.00 0.00 0.00 0.00 0.00 0.00 0.00 0.00 0.00 0.00 0.00 0.00 0.01 0.01 0.01 0.01 0.01 0.01 0.01 0.01 0.01 0.01 0.01 0.01
0.02 0.02 0.02 0.02 0.02 0.01 0.01 0.01 0.01 0.01 0.01 0.01 0.01 0.00 0.00 0.00 0.00 0.00 0.00 0.00 0.00 0.00 0.00 0.00 0.00 0.00 0.00 0.00 0.00 0.00 0.00 0.00 0.00 0.00 0.00 0.00 0.00 0.01 0.01 0.01 0.01 0.01 0.02 0.02
0.02 0.02 0.01 0.01 0.01 0.01 0.01 0.01 0.01 0.01 0.01 0.01 0.01 0.00 0.00 0.00 0.00 0.00 0.00 0.00 0.00 0.00 0.00 0.00 0.00 0.00 0.00 0.00 0.00 0.00 0.00 0.00 0.00 0.00 0.00 0.01 0.01 0.01 0.01 0.01 0.01 0.02 0.02 0.02
MSLP
1013.43 1013.67 1013.84 1013.92 1013.90 1013.75 1013.46 1013.04 1012.52 1011.91 1011.28 1010.66 1010.13 1009.73 1009.50 1009.48 1009.66 1010.03 1010.57 1011.25 1012.00 1012.78 1013.56 1014.29 1014.97 1015.58 1016.12 1016.60 1017.03 1017.43 1017.79 1018.13 1018.45 1018.75 1019.02 1019.27 1019.50 1019.70 1019.89 1020.05 1020.22 1020.37 1020.53 1020.68
1013.29 1013.45 1013.52 1013.50 1013.37 1013.11 1012.74 1012.27 1011.71 1011.11 1010.49 1009.91 1009.42 1009.05 1008.85 1008.83 1008.99 1009.34 1009.86 1010.50 1011.22 1012.00 1012.79 1013.57 1014.30 1014.98 1015.61 1016.18 1016.70 1017.17 1017.62 1018.03 1018.42 1018.78 1019.12 1019.43 1019.72 1019.99 1020.24 1020.47 1020.68 1020.88 1021.07 1021.25
1013.12 1013.20 1013.19 1013.06 1012.83 1012.49 1012.05 1011.53 1010.95 1010.35 1009.76 1009.22 1008.76 1008.42 1008.24 1008.21 1008.36 1008.67 1009.13 1009.72 1010.41 1011.16 1011.95 1012.74 1013.51 1014.25 1014.95 1015.60 1016.21 1016.78 1017.31 1017.80 1018.27 1018.70 1019.11 1019.49 1019.85 1020.17 1020.48 1020.77 1021.03 1021.26 1021.48 1021.68
1012.91 1012.92 1012.82 1012.61 1012.30 1011.90 1011.41 1010.87 1010.30 1009.72 1009.16 1008.66 1008.24 1007.92 1007.74 1007.70 1007.82 1008.08 1008.48 1009.00 1009.63 1010.33 1011.09 1011.87 1012.65 1013.43 1014.19 1014.91 1015.60 1016.25 1016.86 1017.44 1017.98 1018.48 1018.95 1019.40 1019.81 1020.19 1020.54 1020.86 1021.16 1021.43 1021.67 1021.87
1012.65 1012.60 1012.44 1012.17 1011.82 1011.38 1010.89 1010.36 1009.80 1009.26 1008.74 1008.28 1007.89 1007.60 1007.42 1007.36 1007.43 1007.63 1007.96 1008.40 1008.95 1009.58 1010.28 1011.03 1011.80 1012.59 1013.37 1014.14 1014.89 1015.60 1016.28 1016.93 1017.53 1018.10 1018.62 1019.11 1019.56 1019.98 1020.36 1020.71 1021.03 1021.32 1021.57 1021.79
1012.39 1012.29 1012.10 1011.81 1011.44 1011.01 1010.53 1010.02 1009.51 1009.00 1008.53 1008.11 1007.75 1007.47 1007.28 1007.20 1007.22 1007.35 1007.60 1007.96 1008.41 1008.96 1009.58 1010.27 1011.00 1011.77 1012.55 1013.33 1014.11 1014.87 1015.59 1016.28 1016.94 1017.54 1018.11 1018.63 1019.11 1019.54 1019.95 1020.31 1020.64 1020.94 1021.21 1021.45
1012.20 1012.08 1011.88 1011.60 1011.24 1010.83 1010.38 1009.92 1009.44 1008.98 1008.55 1008.15 1007.81 1007.53 1007.33 1007.20 1007.17 1007.23 1007.39 1007.65 1008.01 1008.46 1009.00 1009.61 1010.28 1011.00 1011.75 1012.53 1013.30 1014.07 1014.82 1015.53 1016.21 1016.85 1017.43 1017.97 1018.46 1018.91 1019.32 1019.70 1020.04 1020.36 1020.65 1020.91
1012.17 1012.06 1011.87 1011.61 1011.29 1010.91 1010.50 1010.06 1009.62 1009.19 1008.78 1008.39 1008.04 1007.75 1007.51 1007.34 1007.24 1007.22 1007.30 1007.46 1007.72 1008.08 1008.52 1009.04 1009.63 1010.29 1010.99 1011.73 1012.49 1013.24 1013.99 1014.71 1015.40 1016.04 1016.63 1017.18 1017.68 1018.13 1018.55 1018.94 1019.30 1019.63 1019.95 1020.25
1012.39 1012.31 1012.15 1011.92 1011.62 1011.27 1010.88 1010.47 1010.04 1009.61 1009.19 1008.78 1008.40 1008.06 1007.77 1007.54 1007.37 1007.27 1007.26 1007.33 1007.49 1007.75 1008.10 1008.53 1009.05 1009.63 1010.27 1010.96 1011.67 1012.40 1013.13 1013.84 1014.52 1015.16 1015.75 1016.30 1016.81 1017.27 1017.70 1018.10 1018.48 1018.85 1019.20 1019.54
1012.92 1012.87 1012.74 1012.53 1012.25 1011.91 1011.52 1011.10 1010.65 1010.19 1009.72 1009.27 1008.83 1008.42 1008.06 1007.74 1007.49 1007.31 1007.21 1007.20 1007.27 1007.44 1007.70 1008.05 1008.48 1008.99 1009.56 1010.19 1010.86 1011.55 1012.24 1012.93 1013.60 1014.23 1014.83 1015.38 1015.89 1016.37 1016.81 1017.24 1017.65 1018.05 1018.44 1018.83
1013.75 1013.73 1013.61 1013.41 1013.13 1012.77 1012.35 1011.89 1011.39 1010.86 1010.32 1009.79 1009.26 1008.77 1008.32 1007.92 1007.58 1007.31 1007.12 1007.02 1007.02 1007.11 1007.28 1007.55 1007.91 1008.35 1008.85 1009.42 1010.04 1010.68 1011.34 1012.01 1012.66 1013.28 1013.87 1014.43 1014.95 1015.44 1015.91 1016.36 1016.79 1017.23 1017.66 1018.09
1014.81 1014.80 1014.68 1014.46 1014.14 1013.74 1013.27 1012.74 1012.16 1011.55 1010.92 1010.29 1009.67 1009.08 1008.53 1008.04 1007.61 1007.26 1006.99 1006.81 1006.73 1006.74 1006.84 1007.04 1007.32 1007.69 1008.13 1008.64 1009.20 1009.80 1010.42 1011.05 1011.68 1012.29 1012.88 1013.44 1013.97 1014.47 1014.95 1015.42 1015.88 1016.34 1016.80 1017.26
1015.95 1015.93 1015.78 1015.52 1015.15 1014.69 1014.15 1013.54 1012.88 1012.18 1011.46 1010.74 1010.03 1009.35 1008.71 1008.13 1007.62 1007.19 1006.84 1006.59 1006.43 1006.37 1006.40 1006.52 1006.73 1007.03 1007.40 1007.84 1008.34 1008.89 1009.47 1010.06 1010.66 1011.25 1011.83 1012.38 1012.91 1013.42 1013.91 1014.39 1014.86 1015.33 1015.80 1016.27
1017.03 1016.97 1016.77 1016.45 1016.03 1015.50 1014.89 1014.21 1013.48 1012.72 1011.93 1011.14 1010.36 1009.61 1008.90 1008.25 1007.67 1007.17 1006.75 1006.42 1006.19 1006.05 1006.00 1006.04 1006.18 1006.39 1006.68 1007.05 1007.48 1007.96 1008.48 1009.02 1009.58 1010.14 1010.69 1011.23 1011.74 1012.24 1012.72 1013.20 1013.66 1014.13 1014.59 1015.06
1017.90 1017.77 1017.52 1017.14 1016.65 1016.07 1015.42 1014.70 1013.94 1013.14 1012.32 1011.50 1010.69 1009.90 1009.15 1008.45 1007.82 1007.26 1006.77 1006.37 1006.06 1005.84 1005.70 1005.66 1005.70 1005.82 1006.02 1006.29 1006.64 1007.03 1007.48 1007.96 1008.45 1008.96 1009.47 1009.97 1010.45 1010.92 1011.39 1011.84 1012.29 1012.73 1013.18 1013.62
1018.46 1018.26 1017.94 1017.51 1016.99 1016.39 1015.72 1015.00 1014.24 1013.46 1012.66 1011.85 1011.05 1010.26 1009.50 1008.78 1008.12 1007.51 1006.97 1006.50 1006.11 1005.80 1005.56 1005.41 1005.35 1005.36 1005.45 1005.62 1005.85 1006.15 1006.50 1006.89 1007.30 1007.74 1008.18 1008.63 1009.07 1009.50 1009.92 1010.34 1010.76 1011.19 1011.61 1012.03
1018.69 1018.43 1018.05 1017.59 1017.05 1016.46 1015.82 1015.14 1014.44 1013.71 1012.97 1012.22 1011.47 1010.72 1009.98 1009.27 1008.59 1007.95 1007.36 1006.83 1006.36 1005.95 1005.62 1005.36 1005.17 1005.06 1005.03 1005.07 1005.19 1005.37 1005.60 1005.88 1006.20 1006.54 1006.90 1007.27 1007.65 1008.03 1008.42 1008.80 1009.19 1009.59 1009.99 1010.39
1018.64 1018.31 1017.91 1017.44 1016.92 1016.37 1015.79 1015.20 1014.58 1013.95 1013.31 1012.64 1011.97 1011.28 1010.59 1009.90 1009.22 1008.56 1007.94 1007.34 1006.80 1006.30 1005.87 1005.50 1005.19 1004.96 1004.80 1004.71 1004.69 1004.74 1004.85 1005.01 1005.21 1005.45 1005.72 1006.02 1006.32 1006.65 1006.98 1007.33 1007.69 1008.06 1008.45 1008.84
1018.37 1018.02 1017.61 1017.16 1016.69 1016.21 1015.73 1015.23 1014.73 1014.21 1013.68 1013.12 1012.53 1011.92 1011.28 1010.62 1009.96 1009.29 1008.63 1008.00 1007.39 1006.82 1006.30 1005.83 1005.42 1005.07 1004.79 1004.57 1004.43 1004.34 1004.32 1004.36 1004.45 1004.58 1004.76 1004.96 1005.20 1005.46 1005.75 1006.07 1006.40 1006.76 1007.13 1007.52
1018.01 1017.66 1017.27 1016.87 1016.48 1016.09 1015.70 1015.31 1014.92 1014.51 1014.08 1013.61 1013.11 1012.56 1011.97 1011.35 1010.71 1010.04 1009.37 1008.71 1008.06 1007.44 1006.85 1006.31 1005.81 1005.37 1004.99 1004.67 1004.41 1004.21 1004.07 1003.99 1003.97 1004.00 1004.08 1004.21 1004.38 1004.59 1004.83 1005.11 1005.43 1005.77 1006.13 1006.51
1017.65 1017.33 1016.99 1016.66 1016.35 1016.04 1015.75 1015.46 1015.16 1014.84 1014.49 1014.09 1013.64 1013.14 1012.60 1012.01 1011.38 1010.73 1010.06 1009.39 1008.73 1008.08 1007.46 1006.88 1006.33 1005.83 1005.37 1004.97 1004.62 1004.33 1004.10 1003.92 1003.81 1003.75 1003.75 1003.80 1003.91 1004.06 1004.27 1004.51 1004.80 1005.12 1005.47 1005.83
1017.35 1017.08 1016.81 1016.56 1016.32 1016.10 1015.88 1015.66 1015.42 1015.16 1014.85 1014.49 1014.07 1013.60 1013.08 1012.51 1011.90 1011.27 1010.62 1009.97 1009.32 1008.69 1008.07 1007.48 1006.92 1006.39 1005.90 1005.45 1005.04 1004.68 1004.38 1004.13 1003.94 1003.80 1003.73 1003.72 1003.77 1003.88 1004.04 1004.25 1004.50 1004.79 1005.10 1005.44
1017.11 1016.91 1016.72 1016.54 1016.38 1016.22 1016.05 1015.87 1015.66 1015.41 1015.12 1014.76 1014.35 1013.89 1013.38 1012.83 1012.24 1011.64 1011.03 1010.41 1009.80 1009.21 1008.62 1008.06 1007.51 1006.99 1006.49 1006.02 1005.58 1005.19 1004.83 1004.53 1004.28 1004.09 1003.97 1003.91 1003.91 1003.97 1004.08 1004.25 1004.45 1004.69 1004.96 1005.23
1016.91 1016.79 1016.68 1016.57 1016.46 1016.35 1016.21 1016.04 1015.83 1015.57 1015.25 1014.89 1014.46 1013.99 1013.49 1012.95 1012.40 1011.83 1011.27 1010.71 1010.15 1009.61 1009.09 1008.57 1008.06 1007.56 1007.08 1006.61 1006.17 1005.75 1005.37 1005.03 1004.74 1004.51 1004.35 1004.24 1004.20 1004.21 1004.28 1004.39 1004.54 1004.72 1004.92 1005.12
1016.72 1016.68 1016.63 1016.58 1016.51 1016.41 1016.28 1016.10 1015.87 1015.59 1015.24 1014.85 1014.41 1013.93 1013.43 1012.91 1012.39 1011.87 1011.37 1010.87 1010.39 1009.91 1009.45 1008.98 1008.52 1008.06 1007.59 1007.14 1006.69 1006.26 1005.87 1005.51 1005.19 1004.93 1004.73 1004.59 1004.51 1004.49 1004.51 1004.57 1004.66 1004.77 1004.89 1005.01
1016.50 1016.52 1016.52 1016.51 1016.46 1016.37 1016.23 1016.04 1015.78 1015.47 1015.10 1014.68 1014.23 1013.75 1013.26 1012.77 1012.29 1011.83 1011.38 1010.95 1010.53 1010.12 1009.70 1009.29 1008.86 1008.42 1007.98 1007.53 1007.08 1006.64 1006.23 1005.86 1005.52 1005.24 1005.02 1004.86 1004.75 1004.69 1004.66 1004.67 1004.71 1004.75 1004.79 1004.84
1016.21 1016.27 1016.31 1016.32 1016.28 1016.19 1016.04 1015.83 1015.56 1015.22 1014.84 1014.42 1013.97 1013.51 1013.04 1012.59 1012.16 1011.75 1011.35 1010.97 1010.61 1010.24 1009.86 1009.47 1009.06 1008.64 1008.19 1007.73 1007.27 1006.83 1006.40 1006.01 1005.67 1005.37 1005.14 1004.96 1004.83 1004.74 1004.69 1004.66 1004.64 1004.63 1004.61 1004.59
Thickness
5704 5708 5706 5705 5705 5705 5706 5711 5710 5716 5718 5724 5728 5728 5728 5727 5726 5724 5722 5722 5721 5719 5717 5715 5714 5713 5712 5710 5709 5707 5705 5704 5703 5702 5700 5698 5696 5695 5694 5693 5692 5691 5690 5689
5700 5705 5706 5704 5707 5708 5708 5712 5714 5716 5719 5734 5735 5732 5728 5727 5724 5722 5721 5721 5720 5719 5717 5715 5713 5712 5710 5707 5706 5704 5702 5700 5698 5696 5694 5692 5691 5690 5688 5687 5686 5685 5685 5683
5696 5703 5701 5699 5713 5713 5714 5719 5719 5716 5726 5732 5728 5727 5727 5727 5725 5724 5724 5722 5720 5719 5717 5716 5715 5712 5707 5706 5703 5701 5698 5696 5693 5691 5689 5688 5686 5685 5682 5681 5680 5679 5678 5677
5694 5694 5682 5714 5728 5724 5720 5724 5728 5730 5732 5732 5732 5732 5732 5732 5729 5726 5725 5722 5721 5719 5716 5715 5713 5710 5706 5702 5700 5697 5694 5692 5689 5687 5685 5683 5681 5679 5678 5678 5675 5674 5673 5672
5689 5688 5697 5714 5721 5721 5718 5721 5732 5730 5731 5732 5731 5727 5728 5732 5732 5730 5727 5724 5721 5719 5716 5713 5710 5707 5702 5698 5696 5693 5690 5688 5686 5684 5681 5679 5677 5675 5674 5672 5670 5669 5668 5666
5685 5682 5685 5710 5723 5728 5722 5716 5732 5732 5729 5728 5726 5721 5728 5732 5730 5727 5724 5721 5718 5715 5712 5709 5706 5703 5699 5695 5692 5689 5687 5686 5684 5681 5678 5675 5673 5671 5669 5667 5665 5664 5662 5661
5683 5683 5697 5715 5717 5719 5705 5717 5731 5732 5732 5730 5730 5735 5736 5732 5727 5723 5720 5717 5714 5711 5707 5705 5702 5699 5695 5692 5689 5687 5684 5681 5678 5676 5673 5671 5668 5666 5664 5662 5660 5659 5656 5655
5684 5680 5690 5710 5710 5711 5719 5727 5728 5730 5731 5730 5731 5729 5728 5725 5721 5718 5714 5711 5709 5705 5702 5699 5697 5694 5691 5688 5686 5681 5678 5675 5673 5671 5669 5666 5662 5660 5659 5657 5654 5653 5651 5649
5691 5694 5701 5705 5709 5714 5717 5720 5723 5725 5727 5726 5723 5721 5720 5718 5715 5712 5709 5706 5704 5700 5696 5693 5692 5690 5686 5683 5679 5675 5672 5669 5667 5665 5662 5660 5658 5655 5653 5651 5649 5648 5646 5644
5686 5695 5698 5700 5705 5707 5711 5713 5717 5721 5722 5721 5718 5717 5714 5712 5709 5706 5703 5700 5698 5695 5691 5688 5685 5683 5681 5677 5673 5670 5667 5664 5662 5660 5657 5655 5651 5650 5647 5645 5643 5641 5639 5637
5681 5689 5691 5695 5697 5701 5704 5708 5711 5714 5715 5714 5713 5710 5709 5707 5704 5701 5698 5695 5693 5691 5686 5682 5679 5676 5674 5671 5668 5665 5662 5659 5656 5653 5651 5647 5644 5641 5640 5637 5635 5631 5630 5628
5676 5683 5685 5687 5691 5694 5696 5699 5702 5704 5705 5706 5706 5704 5703 5700 5697 5695 5692 5690 5687 5683 5679 5676 5673 5670 5667 5665 5662 5660 5657 5653 5649 5646 5642 5640 5637 5632 5627 5625 5622 5619 5616 5615
5672 5675 5677 5679 5682 5685 5688 5691 5694 5696 5696 5696 5697 5696 5694 5692 5689 5687 5685 5682 5679 5676 5672 5670 5667 5664 5660 5658 5656 5653 5650 5646 5642 5638 5635 5632 5629 5626 5622 5616 5612 5609 5606 5603
5663 5665 5667 5671 5673 5676 5680 5682 5685 5686 5687 5687 5686 5685 5684 5682 5680 5677 5676 5674 5672 5668 5665 5662 5659 5656 5653 5650 5647 5645 5642 5637 5633 5630 5627 5624 5621 5618 5615 5612 5609 5605 5600 5595
5654 5657 5660 5662 5664 5667 5670 5672 5673 5674 5674 5674 5674 5673 5672 5671 5669 5667 5666 5664 5662 5659 5657 5654 5650 5647 5644 5641 5638 5635 5632 5628 5625 5621 5618 5615 5612 5609 5606 5603 5601 5598 5595 5590
5644 5648 5651 5652 5654 5656 5659 5661 5661 5662 5663 5662 5662 5662 5661 5660 5658 5656 5655 5654 5651 5649 5647 5644 5641 5638 5635 5632 5629 5625 5622 5617 5614 5612 5609 5606 5602 5599 5596 5594 5591 5589 5586 5583
5633 5636 5639 5641 5643 5645 5647 5649 5650 5651 5651 5650 5650 5650 5649 5648 5646 5644 5643 5642 5640 5639 5637 5634 5631 5628 5625 5622 5619 5616 5612 5607 5602 5601 5599 5596 5593 5590 5586 5583 5581 5578 5576 5572
5625 5628 5631 5633 5634 5635 5635 5637 5638 5639 5639 5638 5638 5637 5637 5636 5635 5633 5631 5630 5628 5626 5624 5622 5619 5616 5613 5611 5608 5605 5602 5598 5595 5592 5589 5585 5582 5579 5576 5573 5570 5568 5565 5562
5613 5616 5619 5620 5622 5623 5624 5624 5626 5626 5626 5626 5625 5625 5624 5623 5622 5621 5619 5617 5616 5613 5611 5609 5605 5604 5601 5598 5595 5593 5590 5587 5583 5580 5577 5572 5569 5567 5565 5562 5560 5557 5554 5551
5600 5603 5605 5607 5609 5611 5612 5613 5613 5613 5613 5612 5612 5611 5610 5609 5608 5607 5606 5604 5603 5601 5598 5596 5593 5591 5589 5585 5581 5581 5578 5575 5572 5569 5565 5562 5559 5556 5554 5551 5548 5545 5543 5539
5587 5590 5592 5595 5597 5598 5599 5600 5601 5600 5600 5599 5599 5599 5598 5597 5595 5594 5593 5591 5589 5586 5584 5581 5580 5578 5576 5572 5568 5568 5565 5562 5559 5556 5553 5550 5547 5545 5542 5539 5536 5533 5530 5527
5575 5578 5580 5582 5585 5586 5587 5588 5588 5587 5587 5586 5585 5585 5584 5583 5582 5580 5579 5577 5574 5570 5569 5568 5567 5564 5561 5557 5556 5554 5552 5549 5546 5544 5541 5538 5535 5532 5530 5527 5524 5521 5518 5515
5564 5566 5569 5571 5573 5574 5575 5575 5574 5574 5573 5573 5573 5572 5571 5570 5568 5567 5565 5562 5560 5556 5555 5554 5551 5547 5545 5545 5543 5541 5538 5535 5533 5530 5527 5524 5521 5519 5516 5513 5510 5507 5504 5501
5552 5554 5556 5558 5559 5560 5561 5561 5561 5560 5559 5559 5559 5558 5557 5555 5554 5553 5551 5547 5544 5541 5541 5538 5534 5532 5530 5532 5530 5527 5524 5521 5518 5516 5513 5510 5507 5504 5502 5499 5497 5494 5491 5487
5539 5541 5544 5545 5546 5547 5548 5548 5547 5546 5545 5544 5544 5543 5542 5541 5539 5537 5535 5532 5529 5527 5526 5523 5520 5518 5517 5517 5515 5513 5510 5507 5504 5501 5498 5496 5493 5490 5488 5485 5482 5480 5477 5474
5526 5528 5530 5532 5533 5533 5533 5533 5533 5532 5531 5530 5529 5528 5527 5525 5523 5521 5519 5517 5515 5512 5511 5508 5506 5504 5503 5501 5499 5496 5494 5492 5489 5487 5484 5481 5479 5476 5474 5471 5468 5466 5463 5460
5513 5515 5516 5518 5518 5519 5519 5519 5519 5518 5517 5516 5514 5512 5511 5509 5508 5506 5504 5502 5499 5497 5495 5493 5491 5489 5487 5485 5483 5481 5479 5477 5475 5473 5470 5468 5465 5463 5461 5458 5455 5453 5450 5448